Main page
METAR-TAF:

METAR-TAF

Airports :

Jask, Iran

latitude: 26-38N, longitude: 057-46E, elevation: 3 m

Current weather observation

The report was made 30 minutes ago, at 06:00 UTC
Wind 4 kt from the East/Southeast
Temperature 32°C
Humidity 49%
Pressure 1013 hPa
Visibility: 3000 m
haze

METAR: OIZJ 170600Z 12004KT 3000 HZ NSC 32/20 Q1013

Time: 10:00 (06:30 UTC)


TAF: missing

Weather observations and forecasts of more than 4000 airports (METAR and TAF reports).

The available stations are represented by yellow and red dots on the map.

Hover mouse over dot to see the name of the station.

Then click to see weather observations and forecasts.

To change the map : click on the green buttons with a black cross to zoom in, on the green button with a dash to zoom out, or on the green arrows for adjacent maps.


METAR-TAF: